Flag for United Kingdom Weather past 2 weeks in Newport (Isle of Wight), England, United Kingdom

Now
60 °F

Cool.


Feels Like: 60 °F
Forecast: 57 / 68 °F
Wind: 32 mph from West

Location: Saint Catherine's Point

Current Time: Jul 7, 2015 at 11:52:23 PM

Latest Report: Jul 7, 2015 at 10:00 PM


Visibility: N/A

Pressure: 29.84 "Hg

Humidity: 82%

Dew point: 55 °F

Location of Newport (Isle of Wight)Location

Historic Weather in Newport (Isle of Wight) — Graph

°F

Newport (Isle of Wight) temperature yesterday

Maximum temperature yesterday: 64 °F (at 6:00 PM)
Minimum temperature yesterday: 58 °F (at 11:00 PM)
Average temperature yesterday: 61 °F

Past Weeks' High & Low Weather Summary

 TemperatureHumidityPressure
High73 °F (Jun 30, 7:00 PM)100% (Jun 26, 11:00 PM)30.28 "Hg (Jun 26, 11:00 PM)
Low53 °F (Jun 23, 1:00 AM)54% (Jun 30, 7:00 PM)29.81 "Hg (Jul 7, 9:00 AM)
Average61 °F83%30.09 "Hg
* Reported Jun 22 10:00 PM — Jul 7 10:00 PM, Newport (Isle of Wight), Weather by CustomWeather, © 2015

Note: Actual official high and low records may vary slightly from our data, if they occured in-between our weather recording intervals... More about our weather records

Advertising

Newport (Isle of Wight) weather history for previous 24 hours

 ConditionsComfort  
Time TempWeatherWind HumidityBarometerVisibility
10:00 PM
Tue, Jul 7
60 °FCool.32 mph82%29.84 "HgN/A
9:00 PM60 °FCool.29 mph82%29.83 "HgN/A
8:00 PM61 °FCool.31 mph81%29.83 "HgN/A
7:00 PM61 °FCool.30 mph79%29.82 "HgN/A
6:00 PM62 °FCool.29 mph77%29.82 "HgN/A
5:00 PM62 °FMild.28 mph81%29.83 "HgN/A
4:00 PM62 °FMild.30 mph82%29.83 "HgN/A
3:00 PM63 °FMild.26 mph84%29.83 "HgN/A
2:00 PM62 °FMild.25 mph87%29.83 "HgN/A
1:00 PM62 °FCool.23 mph88%29.83 "HgN/A
12:00 PM62 °FCool.26 mph88%29.83 "HgN/A
11:00 AM62 °FCool.22 mph91%29.83 "HgN/A
10:00 AM62 °FCool.22 mph95%29.83 "HgN/A
9:00 AM62 °FCool.18 mph96%29.81 "HgN/A
8:00 AM62 °FCool.20 mph95%29.84 "HgN/A
7:00 AM62 °FCool.16 mph90%29.85 "HgN/A
6:00 AM62 °FCool.7 mph84%29.87 "HgN/A
5:00 AM61 °FCool.3 mph89%29.87 "HgN/A
3:00 AM62 °FCool.7 mph86%29.90 "HgN/A
2:00 AM61 °FCool.6 mph86%29.93 "HgN/A
1:00 AM61 °FCool.3 mph85%29.95 "HgN/A
12:00 AM58 °FCool.6 mph92%29.96 "HgN/A
11:00 PM
Mon, Jul 6
58 °FCool.6 mph90%29.99 "HgN/A
Weather by CustomWeather, © 2015

See weather overviewHow to use our weather pages